Flight Track Log - Related Links

Times and Time Zones

All times are in EDT time to prevent confusion due to time zone crossing. See the TCF3516 flight status page for this flight to view local times or setup timezone preferences in your user account.

Time Position Orientation Groundspeed Altitude Reporting Facility
EDT Latitude Longitude Course Direction KTS MPH feet Rate Location/Type
Wed 02:44:48 PM 44.8500 -93.2333 152° Southeast 147 169 2,600  Level Minneapolis TRACON
Wed 02:45:18 PM 44.8264 -93.2133 149° Southeast 166 191 3,300 2,205 Climbing Minneapolis Center
Wed 02:48:23 PM 44.6561 -93.0339 173° South 289 333 10,500 2,259 Climbing Minneapolis Center
Wed 02:49:00 PM 44.5967 -92.8667 157° South  Level Estimated
Wed 02:49:25 PM 44.5700 -93.0050 167° South 314 361 12,600  Level Minneapolis Center
Wed 02:50:00 PM 44.5460 -92.7623 152° Southeast  Level Estimated
Wed 02:50:27 PM 44.4914 -92.9278 145° Southeast 340 391 14,900  Level Minneapolis Center
Wed 02:51:29 PM 44.4111 -92.8472 144° Southeast 352 405 17,000 2,274 Climbing Minneapolis Center
Wed 02:52:31 PM 44.3089 -92.7478 145° Southeast 368 423 19,600 2,146 Climbing Minneapolis Center
Wed 02:53:32 PM 44.2225 -92.6622 145° Southeast 376 433 21,400 1,659 Climbing Minneapolis Center
Wed 02:54:34 PM 44.1333 -92.5739 145° Southeast 388 447 23,000 1,500 Climbing Minneapolis Center
Wed 02:55:36 PM 44.0419 -92.4839 145° Southeast 400 460 24,500 1,290 Climbing Minneapolis Center
Wed 02:57:40 PM 43.8522 -92.2975 120° Southeast 420 483 27,000 941 Climbing Minneapolis Center
Wed 02:58:41 PM 43.7319 -92.1806 145° Southeast 456 525 27,400 439 Climbing Minneapolis Center
Wed 02:59:43 PM 43.6197 -92.0722 145° Southeast 490 564 27,900 919 Climbing Minneapolis Center
Wed 03:00:45 PM 43.5058 -91.9628 145° Southeast 500 575 29,300 974 Climbing Minneapolis Center
Wed 03:02:54 PM 43.3239 -91.6278 127° Southeast 506 582 31,000 534 Climbing Chicago Center
Wed 03:03:56 PM 43.2517 -91.4581 120° Southeast 512 589 31,000  Level Chicago Center
Wed 03:04:58 PM 43.1800 -91.2856 120° Southeast 515 593 31,000  Level Chicago Center
Wed 03:06:56 PM 43.0339 -90.9464 120° Southeast 513 590 31,000  Level Minneapolis Center
Wed 03:07:58 PM 42.9617 -90.7792 121° Southeast 513 590 31,000  Level Minneapolis Center
Wed 03:09:07 PM 42.8756 -90.5825 121° Southeast 513 590 31,000  Level Chicago Center
Wed 03:10:09 PM 42.8053 -90.4197 120° Southeast 510 587 31,000  Level Chicago Center
Wed 03:11:11 PM 42.7328 -90.2533 121° Southeast 510 587 31,000 -919 Level Chicago Center
Wed 03:12:13 PM 42.6581 -90.0897 122° Southeast 511 588 29,100 -2,419 Descending Chicago Center
Wed 03:13:15 PM 42.5711 -89.8953 121° Southeast 499 574 26,000 -2,661 Descending Chicago Center
Wed 03:14:17 PM 42.5194 -89.7342 113° Southeast 479 551 23,600 -1,790 Descending Chicago Center
Wed 03:15:19 PM 42.5144 -89.5636 92° East 460 529 22,300 -1,484 Descending Chicago Center
Wed 03:17:23 PM 42.5092 -89.2336 91° East 442 509 19,000 -1,581 Descending Chicago Center
Wed 03:18:25 PM 42.4925 -89.0436 97° East 433 498 17,400 -1,887 Descending Chicago Center
Wed 03:19:27 PM 42.4644 -88.8878 104° East 431 496 15,100 -2,419 Descending Chicago Center
Wed 03:20:29 PM 42.4375 -88.7386 104° East 417 480 12,400 -1,984 Descending Chicago Center
Wed 03:21:31 PM 42.4083 -88.6053 106° East 382 440 11,000 -677 Descending Chicago Center
Wed 03:22:33 PM 42.3697 -88.4803 113° Southeast 367 422 11,000  Level Chicago Center
Wed 03:23:35 PM 42.3103 -88.3411 120° Southeast 379 436 11,000  Level Chicago Center
Wed 03:24:37 PM 42.2458 -88.2317 128° Southeast 373 429 11,000 -387 Level Chicago Center
Wed 03:25:39 PM 42.1794 -88.1272 131° Southeast 336 387 10,200 -774 Descending Chicago Center
Wed 03:26:41 PM 42.1144 -88.0525 140° Southeast 306 352 9,400 -919 Descending Chicago Center
Wed 03:27:43 PM 42.0914 -87.9506 107° East 295 339 8,300 -1,161 Descending Chicago Center
Wed 03:28:45 PM 42.0914 -87.8342 90° East 290 334 7,000 -1,065 Descending Chicago Center
Wed 03:29:47 PM 42.0914 -87.7428 90° East 248 285 6,100 -1,485 Descending Chicago Center
Wed 03:31:59 PM 42.0167 -87.7667 193° South 201 231 2,200 -1,419 Descending Chicago TRACON
Wed 03:32:53 PM 42.0000 -87.8333 251° West 165 190 1,700 -621 Descending Chicago TRACON
Wed 03:33:55 PM 42.0017 -87.8800 273° West 137 158 1,000 -677 Descending Chicago Center

Login

Don't have an account? Register now (free) for customized features, flight alerts, and more!